owner,sensor,date,latitude,longitude,vertical_datum,sea_water_temperature,qcFlag 
SCCF RECON,ioos:station:SCCF:56:1,2014-10-01T00:00:00Z,26.4645,-82.1044,1.64,30.24,2 
SCCF RECON,ioos:station:SCCF:56:1,2014-10-01T01:00:00Z,26.4645,-82.1044,1.64,30.11,2 
SCCF RECON,ioos:station:SCCF:56:1,2014-10-01T02:00:00Z,26.4645,-82.1044,1.64,29.96,2 
SCCF RECON,ioos:station:SCCF:56:1,2014-10-01T03:00:00Z,26.4645,-82.1044,1.64,29.95,2 
SCCF RECON,ioos:station:SCCF:56:1,2014-10-01T04:00:00Z,26.4645,-82.1044,1.64,29.8,2 
SCCF RECON,ioos:station:SCCF:56:1,2014-10-01T05:00:00Z,26.4645,-82.1044,1.64,29.6,2 
SCCF RECON,ioos:station:SCCF:56:1,2014-10-01T06:00:00Z,26.4645,-82.1044,1.64,29.36,2 
SCCF RECON,ioos:station:SCCF:56:1,2014-10-01T07:00:00Z,26.4645,-82.1044,1.64,29.39,2 
SCCF RECON,ioos:station:SCCF:56:1,2014-10-01T08:00:00Z,26.4645,-82.1044,1.64,29.49,2 
SCCF RECON,ioos:station:SCCF:56:1,2014-10-01T09:00:00Z,26.4645,-82.1044,1.64,29.47,2 
SCCF RECON,ioos:station:SCCF:56:1,2014-10-01T10:00:00Z,26.4645,-82.1044,1.64,29.4,2 
SCCF RECON,ioos:station:SCCF:56:1,2014-10-01T11:00:00Z,26.4645,-82.1044,1.64,29.34,2 
SCCF RECON,ioos:station:SCCF:56:1,2014-10-01T12:00:00Z,26.4645,-82.1044,1.64,29.15,2 
SCCF RECON,ioos:station:SCCF:56:1,2014-10-01T13:00:00Z,26.4645,-82.1044,1.64,29.21,2 
SCCF RECON,ioos:station:SCCF:56:1,2014-10-01T14:00:00Z,26.4645,-82.1044,1.64,29.45,2 
SCCF RECON,ioos:station:SCCF:56:1,2014-10-01T15:00:00Z,26.4645,-82.1044,1.64,29.72,2 
SCCF RECON,ioos:station:SCCF:56:1,2014-10-01T16:00:00Z,26.4645,-82.1044,1.64,30.11,2 
SCCF RECON,ioos:station:SCCF:56:1,2014-10-01T17:00:00Z,26.4645,-82.1044,1.64,30.82,2 
SCCF RECON,ioos:station:SCCF:56:1,2014-10-01T18:00:00Z,26.4645,-82.1044,1.64,31.0,2 
SCCF RECON,ioos:station:SCCF:56:1,2014-10-01T19:00:00Z,26.4645,-82.1044,1.64,31.1,2 
SCCF RECON,ioos:station:SCCF:56:1,2014-10-01T20:00:00Z,26.4645,-82.1044,1.64,30.58,2 
SCCF RECON,ioos:station:SCCF:56:1,2014-10-01T21:00:00Z,26.4645,-82.1044,1.64,30.45,2 
SCCF RECON,ioos:station:SCCF:56:1,2014-10-01T22:00:00Z,26.4645,-82.1044,1.64,30.34,2 
SCCF RECON,ioos:station:SCCF:56:1,2014-10-01T23:00:00Z,26.4645,-82.1044,1.64,30.4,2 
SCCF RECON,ioos:station:SCCF:56:1,2014-10-02T00:00:00Z,26.4645,-82.1044,1.64,30.34,2 
SCCF RECON,ioos:station:SCCF:56:1,2014-10-02T01:00:00Z,26.4645,-82.1044,1.64,30.35,2 
SCCF RECON,ioos:station:SCCF:56:1,2014-10-02T02:00:00Z,26.4645,-82.1044,1.64,30.49,2 
SCCF RECON,ioos:station:SCCF:56:1,2014-10-02T03:00:00Z,26.4645,-82.1044,1.64,30.23,2 
SCCF RECON,ioos:station:SCCF:56:1,2014-10-02T04:00:00Z,26.4645,-82.1044,1.64,30.17,2 
SCCF RECON,ioos:station:SCCF:56:1,2014-10-02T05:00:00Z,26.4645,-82.1044,1.64,30.29,2 
SCCF RECON,ioos:station:SCCF:56:1,2014-10-02T06:00:00Z,26.4645,-82.1044,1.64,30.06,2 
SCCF RECON,ioos:station:SCCF:56:1,2014-10-02T07:00:00Z,26.4645,-82.1044,1.64,29.7,2 
SCCF RECON,ioos:station:SCCF:56:1,2014-10-02T08:00:00Z,26.4645,-82.1044,1.64,29.7,2 
SCCF RECON,ioos:station:SCCF:56:1,2014-10-02T09:00:00Z,26.4645,-82.1044,1.64,29.69,2 
SCCF RECON,ioos:station:SCCF:56:1,2014-10-02T10:00:00Z,26.4645,-82.1044,1.64,29.67,2 
SCCF RECON,ioos:station:SCCF:56:1,2014-10-02T11:00:00Z,26.4645,-82.1044,1.64,29.63,2 
SCCF RECON,ioos:station:SCCF:56:1,2014-10-02T12:00:00Z,26.4645,-82.1044,1.64,29.62,2 
SCCF RECON,ioos:station:SCCF:56:1,2014-10-02T13:00:00Z,26.4645,-82.1044,1.64,29.63,2 
SCCF RECON,ioos:station:SCCF:56:1,2014-10-02T14:00:00Z,26.4645,-82.1044,1.64,29.79,2 
SCCF RECON,ioos:station:SCCF:56:1,2014-10-02T15:00:00Z,26.4645,-82.1044,1.64,30.11,2 
SCCF RECON,ioos:station:SCCF:56:1,2014-10-02T16:00:00Z,26.4645,-82.1044,1.64,30.52,2 
SCCF RECON,ioos:station:SCCF:56:1,2014-10-02T17:00:00Z,26.4645,-82.1044,1.64,31.38,2 
SCCF RECON,ioos:station:SCCF:56:1,2014-10-02T18:00:00Z,26.4645,-82.1044,1.64,31.94,2 
SCCF RECON,ioos:station:SCCF:56:1,2014-10-02T19:00:00Z,26.4645,-82.1044,1.64,32.33,2 
SCCF RECON,ioos:station:SCCF:56:1,2014-10-02T20:00:00Z,26.4645,-82.1044,1.64,32.01,2 
SCCF RECON,ioos:station:SCCF:56:1,2014-10-02T21:00:00Z,26.4645,-82.1044,1.64,31.02,2 
SCCF RECON,ioos:station:SCCF:56:1,2014-10-02T22:00:00Z,26.4645,-82.1044,1.64,30.97,2 
SCCF RECON,ioos:station:SCCF:56:1,2014-10-02T23:00:00Z,26.4645,-82.1044,1.64,30.68,2 
SCCF RECON,ioos:station:SCCF:56:1,2014-10-03T00:00:00Z,26.4645,-82.1044,1.64,30.37,2 
SCCF RECON,ioos:station:SCCF:56:1,2014-10-03T01:00:00Z,26.4645,-82.1044,1.64,30.24,2 
SCCF RECON,ioos:station:SCCF:56:1,2014-10-03T02:00:00Z,26.4645,-82.1044,1.64,30.21,2 
SCCF RECON,ioos:station:SCCF:56:1,2014-10-03T03:00:00Z,26.4645,-82.1044,1.64,30.19,2 
SCCF RECON,ioos:station:SCCF:56:1,2014-10-03T04:00:00Z,26.4645,-82.1044,1.64,30.28,2 
SCCF RECON,ioos:station:SCCF:56:1,2014-10-03T05:00:00Z,26.4645,-82.1044,1.64,30.27,2 
SCCF RECON,ioos:station:SCCF:56:1,2014-10-03T06:00:00Z,26.4645,-82.1044,1.64,30.26,2 
SCCF RECON,ioos:station:SCCF:56:1,2014-10-03T07:00:00Z,26.4645,-82.1044,1.64,30.22,2 
SCCF RECON,ioos:station:SCCF:56:1,2014-10-03T08:00:00Z,26.4645,-82.1044,1.64,29.23,2 
SCCF RECON,ioos:station:SCCF:56:1,2014-10-03T09:00:00Z,26.4645,-82.1044,1.64,29.05,2 
SCCF RECON,ioos:station:SCCF:56:1,2014-10-03T10:00:00Z,26.4645,-82.1044,1.64,29.35,2 
SCCF RECON,ioos:station:SCCF:56:1,2014-10-03T11:00:00Z,26.4645,-82.1044,1.64,29.39,2 
SCCF RECON,ioos:station:SCCF:56:1,2014-10-03T12:00:00Z,26.4645,-82.1044,1.64,29.86,2 
SCCF RECON,ioos:station:SCCF:56:1,2014-10-03T13:00:00Z,26.4645,-82.1044,1.64,29.93,2 
SCCF RECON,ioos:station:SCCF:56:1,2014-10-03T14:00:00Z,26.4645,-82.1044,1.64,29.82,2 
SCCF RECON,ioos:station:SCCF:56:1,2014-10-03T15:00:00Z,26.4645,-82.1044,1.64,29.98,2 
SCCF RECON,ioos:station:SCCF:56:1,2014-10-03T16:00:00Z,26.4645,-82.1044,1.64,30.36,2 
SCCF RECON,ioos:station:SCCF:56:1,2014-10-03T17:00:00Z,26.4645,-82.1044,1.64,30.92,2 
SCCF RECON,ioos:station:SCCF:56:1,2014-10-03T18:00:00Z,26.4645,-82.1044,1.64,31.46,2 
SCCF RECON,ioos:station:SCCF:56:1,2014-10-03T19:00:00Z,26.4645,-82.1044,1.64,32.18,2 
SCCF RECON,ioos:station:SCCF:56:1,2014-10-03T20:00:00Z,26.4645,-82.1044,1.64,32.5,2 
SCCF RECON,ioos:station:SCCF:56:1,2014-10-03T21:00:00Z,26.4645,-82.1044,1.64,32.32,2 
SCCF RECON,ioos:station:SCCF:56:1,2014-10-03T22:00:00Z,26.4645,-82.1044,1.64,31.46,2 
SCCF RECON,ioos:station:SCCF:56:1,2014-10-03T23:00:00Z,26.4645,-82.1044,1.64,30.99,2 
SCCF RECON,ioos:station:SCCF:56:1,2014-10-04T00:00:00Z,26.4645,-82.1044,1.64,30.77,2 
SCCF RECON,ioos:station:SCCF:56:1,2014-10-04T01:00:00Z,26.4645,-82.1044,1.64,30.61,2 
SCCF RECON,ioos:station:SCCF:56:1,2014-10-04T02:00:00Z,26.4645,-82.1044,1.64,30.6,2 
SCCF RECON,ioos:station:SCCF:56:1,2014-10-04T03:00:00Z,26.4645,-82.1044,1.64,30.72,2 
SCCF RECON,ioos:station:SCCF:56:1,2014-10-04T04:00:00Z,26.4645,-82.1044,1.64,30.48,2 
SCCF RECON,ioos:station:SCCF:56:1,2014-10-04T05:00:00Z,26.4645,-82.1044,1.64,30.54,2 
SCCF RECON,ioos:station:SCCF:56:1,2014-10-04T06:00:00Z,26.4645,-82.1044,1.64,30.39,2 
SCCF RECON,ioos:station:SCCF:56:1,2014-10-04T07:00:00Z,26.4645,-82.1044,1.64,30.24,2 
SCCF RECON,ioos:station:SCCF:56:1,2014-10-04T08:00:00Z,26.4645,-82.1044,1.64,30.17,2 
SCCF RECON,ioos:station:SCCF:56:1,2014-10-04T09:00:00Z,26.4645,-82.1044,1.64,29.82,2 
SCCF RECON,ioos:station:SCCF:56:1,2014-10-04T10:00:00Z,26.4645,-82.1044,1.64,29.41,2 
SCCF RECON,ioos:station:SCCF:56:1,2014-10-04T11:00:00Z,26.4645,-82.1044,1.64,29.76,2 
SCCF RECON,ioos:station:SCCF:56:1,2014-10-04T12:00:00Z,26.4645,-82.1044,1.64,29.45,2 
SCCF RECON,ioos:station:SCCF:56:1,2014-10-04T13:00:00Z,26.4645,-82.1044,1.64,29.85,2 
SCCF RECON,ioos:station:SCCF:56:1,2014-10-04T14:00:00Z,26.4645,-82.1044,1.64,29.86,2 
SCCF RECON,ioos:station:SCCF:56:1,2014-10-04T15:00:00Z,26.4645,-82.1044,1.64,29.82,2 
SCCF RECON,ioos:station:SCCF:56:1,2014-10-04T16:00:00Z,26.4645,-82.1044,1.64,29.87,2 
SCCF RECON,ioos:station:SCCF:56:1,2014-10-04T17:00:00Z,26.4645,-82.1044,1.64,29.97,2 
SCCF RECON,ioos:station:SCCF:56:1,2014-10-04T18:00:00Z,26.4645,-82.1044,1.64,29.97,2 
SCCF RECON,ioos:station:SCCF:56:1,2014-10-04T19:00:00Z,26.4645,-82.1044,1.64,30.05,2 
SCCF RECON,ioos:station:SCCF:56:1,2014-10-04T20:00:00Z,26.4645,-82.1044,1.64,30.03,2 
SCCF RECON,ioos:station:SCCF:56:1,2014-10-04T21:00:00Z,26.4645,-82.1044,1.64,29.94,2 
SCCF RECON,ioos:station:SCCF:56:1,2014-10-04T22:00:00Z,26.4645,-82.1044,1.64,29.14,2 
SCCF RECON,ioos:station:SCCF:56:1,2014-10-04T23:00:00Z,26.4645,-82.1044,1.64,28.56,2 
SCCF RECON,ioos:station:SCCF:56:1,2014-10-05T00:00:00Z,26.4645,-82.1044,1.64,28.38,2 
SCCF RECON,ioos:station:SCCF:56:1,2014-10-05T01:00:00Z,26.4645,-82.1044,1.64,28.31,2 
SCCF RECON,ioos:station:SCCF:56:1,2014-10-05T02:00:00Z,26.4645,-82.1044,1.64,27.77,2 
SCCF RECON,ioos:station:SCCF:56:1,2014-10-05T03:00:00Z,26.4645,-82.1044,1.64,28.29,2 
SCCF RECON,ioos:station:SCCF:56:1,2014-10-05T04:00:00Z,26.4645,-82.1044,1.64,28.15,2 
SCCF RECON,ioos:station:SCCF:56:1,2014-10-05T05:00:00Z,26.4645,-82.1044,1.64,28.18,2 
SCCF RECON,ioos:station:SCCF:56:1,2014-10-05T06:00:00Z,26.4645,-82.1044,1.64,27.99,2 
SCCF RECON,ioos:station:SCCF:56:1,2014-10-05T07:00:00Z,26.4645,-82.1044,1.64,27.68,2 
SCCF RECON,ioos:station:SCCF:56:1,2014-10-05T08:00:00Z,26.4645,-82.1044,1.64,27.39,2 
SCCF RECON,ioos:station:SCCF:56:1,2014-10-05T09:00:00Z,26.4645,-82.1044,1.64,27.06,2 
SCCF RECON,ioos:station:SCCF:56:1,2014-10-05T10:00:00Z,26.4645,-82.1044,1.64,26.37,2 
SCCF RECON,ioos:station:SCCF:56:1,2014-10-05T11:00:00Z,26.4645,-82.1044,1.64,25.43,2 
SCCF RECON,ioos:station:SCCF:56:1,2014-10-05T12:00:00Z,26.4645,-82.1044,1.64,25.58,2 
SCCF RECON,ioos:station:SCCF:56:1,2014-10-05T13:00:00Z,26.4645,-82.1044,1.64,26.19,2 
SCCF RECON,ioos:station:SCCF:56:1,2014-10-05T14:00:00Z,26.4645,-82.1044,1.64,27.29,2 
SCCF RECON,ioos:station:SCCF:56:1,2014-10-05T15:00:00Z,26.4645,-82.1044,1.64,27.43,2 
SCCF RECON,ioos:station:SCCF:56:1,2014-10-05T16:00:00Z,26.4645,-82.1044,1.64,27.42,2 
SCCF RECON,ioos:station:SCCF:56:1,2014-10-05T17:00:00Z,26.4645,-82.1044,1.64,27.4,2 
SCCF RECON,ioos:station:SCCF:56:1,2014-10-05T18:00:00Z,26.4645,-82.1044,1.64,27.54,2 
SCCF RECON,ioos:station:SCCF:56:1,2014-10-05T19:00:00Z,26.4645,-82.1044,1.64,27.64,2 
SCCF RECON,ioos:station:SCCF:56:1,2014-10-05T20:00:00Z,26.4645,-82.1044,1.64,27.71,2 
SCCF RECON,ioos:station:SCCF:56:1,2014-10-05T21:00:00Z,26.4645,-82.1044,1.64,27.71,2 
SCCF RECON,ioos:station:SCCF:56:1,2014-10-05T22:00:00Z,26.4645,-82.1044,1.64,27.57,2 
SCCF RECON,ioos:station:SCCF:56:1,2014-10-05T23:00:00Z,26.4645,-82.1044,1.64,27.03,2 
SCCF RECON,ioos:station:SCCF:56:1,2014-10-06T00:00:00Z,26.4645,-82.1044,1.64,26.64,2 
SCCF RECON,ioos:station:SCCF:56:1,2014-10-06T01:00:00Z,26.4645,-82.1044,1.64,27.28,2 
SCCF RECON,ioos:station:SCCF:56:1,2014-10-06T02:00:00Z,26.4645,-82.1044,1.64,27.11,2 
SCCF RECON,ioos:station:SCCF:56:1,2014-10-06T03:00:00Z,26.4645,-82.1044,1.64,27.03,2 
SCCF RECON,ioos:station:SCCF:56:1,2014-10-06T04:00:00Z,26.4645,-82.1044,1.64,26.86,2 
SCCF RECON,ioos:station:SCCF:56:1,2014-10-06T05:00:00Z,26.4645,-82.1044,1.64,26.54,2 
SCCF RECON,ioos:station:SCCF:56:1,2014-10-06T06:00:00Z,26.4645,-82.1044,1.64,26.38,2 
SCCF RECON,ioos:station:SCCF:56:1,2014-10-06T07:00:00Z,26.4645,-82.1044,1.64,26.08,2 
SCCF RECON,ioos:station:SCCF:56:1,2014-10-06T08:00:00Z,26.4645,-82.1044,1.64,25.55,2 
SCCF RECON,ioos:station:SCCF:56:1,2014-10-06T09:00:00Z,26.4645,-82.1044,1.64,25.12,2 
SCCF RECON,ioos:station:SCCF:56:1,2014-10-06T10:00:00Z,26.4645,-82.1044,1.64,24.85,2 
SCCF RECON,ioos:station:SCCF:56:1,2014-10-06T11:00:00Z,26.4645,-82.1044,1.64,25.16,2 
SCCF RECON,ioos:station:SCCF:56:1,2014-10-06T12:00:00Z,26.4645,-82.1044,1.64,25.77,2 
SCCF RECON,ioos:station:SCCF:56:1,2014-10-06T13:00:00Z,26.4645,-82.1044,1.64,25.51,2 
SCCF RECON,ioos:station:SCCF:56:1,2014-10-06T14:00:00Z,26.4645,-82.1044,1.64,25.58,2 
SCCF RECON,ioos:station:SCCF:56:1,2014-10-06T15:00:00Z,26.4645,-82.1044,1.64,26.24,2 
SCCF RECON,ioos:station:SCCF:56:1,2014-10-06T16:00:00Z,26.4645,-82.1044,1.64,26.44,2 
SCCF RECON,ioos:station:SCCF:56:1,2014-10-06T17:00:00Z,26.4645,-82.1044,1.64,26.27,2 
SCCF RECON,ioos:station:SCCF:56:1,2014-10-06T18:00:00Z,26.4645,-82.1044,1.64,26.74,2 
SCCF RECON,ioos:station:SCCF:56:1,2014-10-06T19:00:00Z,26.4645,-82.1044,1.64,26.88,2 
SCCF RECON,ioos:station:SCCF:56:1,2014-10-06T20:00:00Z,26.4645,-82.1044,1.64,26.89,2 
SCCF RECON,ioos:station:SCCF:56:1,2014-10-06T21:00:00Z,26.4645,-82.1044,1.64,26.91,2 
SCCF RECON,ioos:station:SCCF:56:1,2014-10-06T22:00:00Z,26.4645,-82.1044,1.64,26.94,2 
SCCF RECON,ioos:station:SCCF:56:1,2014-10-06T23:00:00Z,26.4645,-82.1044,1.64,26.89,2 
SCCF RECON,ioos:station:SCCF:56:1,2014-10-07T00:00:00Z,26.4645,-82.1044,1.64,26.95,2 
SCCF RECON,ioos:station:SCCF:56:1,2014-10-07T01:00:00Z,26.4645,-82.1044,1.64,27.1,2 
SCCF RECON,ioos:station:SCCF:56:1,2014-10-07T02:00:00Z,26.4645,-82.1044,1.64,26.96,2 
SCCF RECON,ioos:station:SCCF:56:1,2014-10-07T03:00:00Z,26.4645,-82.1044,1.64,26.86,2 
SCCF RECON,ioos:station:SCCF:56:1,2014-10-07T04:00:00Z,26.4645,-82.1044,1.64,26.84,2 
SCCF RECON,ioos:station:SCCF:56:1,2014-10-07T05:00:00Z,26.4645,-82.1044,1.64,26.73,2 
SCCF RECON,ioos:station:SCCF:56:1,2014-10-07T06:00:00Z,26.4645,-82.1044,1.64,26.62,2 
SCCF RECON,ioos:station:SCCF:56:1,2014-10-07T07:00:00Z,26.4645,-82.1044,1.64,26.46,2 
SCCF RECON,ioos:station:SCCF:56:1,2014-10-07T08:00:00Z,26.4645,-82.1044,1.64,26.29,2 
SCCF RECON,ioos:station:SCCF:56:1,2014-10-07T09:00:00Z,26.4645,-82.1044,1.64,26.1,2 
SCCF RECON,ioos:station:SCCF:56:1,2014-10-07T10:00:00Z,26.4645,-82.1044,1.64,25.89,2 
SCCF RECON,ioos:station:SCCF:56:1,2014-10-07T11:00:00Z,26.4645,-82.1044,1.64,25.76,2 
SCCF RECON,ioos:station:SCCF:56:1,2014-10-07T12:00:00Z,26.4645,-82.1044,1.64,26.01,2 
SCCF RECON,ioos:station:SCCF:56:1,2014-10-07T13:00:00Z,26.4645,-82.1044,1.64,26.04,2 
SCCF RECON,ioos:station:SCCF:56:1,2014-10-07T14:00:00Z,26.4645,-82.1044,1.64,26.26,2 
SCCF RECON,ioos:station:SCCF:56:1,2014-10-07T15:00:00Z,26.4645,-82.1044,1.64,26.48,2 
SCCF RECON,ioos:station:SCCF:56:1,2014-10-07T16:00:00Z,26.4645,-82.1044,1.64,26.72,2 
SCCF RECON,ioos:station:SCCF:56:1,2014-10-07T17:00:00Z,26.4645,-82.1044,1.64,26.9,2 
SCCF RECON,ioos:station:SCCF:56:1,2014-10-07T18:00:00Z,26.4645,-82.1044,1.64,26.88,2 
SCCF RECON,ioos:station:SCCF:56:1,2014-10-07T19:00:00Z,26.4645,-82.1044,1.64,26.79,2 
SCCF RECON,ioos:station:SCCF:56:1,2014-10-07T20:00:00Z,26.4645,-82.1044,1.64,26.74,2 
SCCF RECON,ioos:station:SCCF:56:1,2014-10-07T21:00:00Z,26.4645,-82.1044,1.64,26.63,2 
SCCF RECON,ioos:station:SCCF:56:1,2014-10-07T22:00:00Z,26.4645,-82.1044,1.64,26.58,2 
SCCF RECON,ioos:station:SCCF:56:1,2014-10-07T23:00:00Z,26.4645,-82.1044,1.64,26.5,2 
SCCF RECON,ioos:station:SCCF:56:1,2014-10-08T00:00:00Z,26.4645,-82.1044,1.64,26.42,2 
SCCF RECON,ioos:station:SCCF:56:1,2014-10-08T01:00:00Z,26.4645,-82.1044,1.64,26.39,2 
SCCF RECON,ioos:station:SCCF:56:1,2014-10-08T02:00:00Z,26.4645,-82.1044,1.64,26.48,2 
SCCF RECON,ioos:station:SCCF:56:1,2014-10-08T03:00:00Z,26.4645,-82.1044,1.64,26.45,2 
SCCF RECON,ioos:station:SCCF:56:1,2014-10-08T04:00:00Z,26.4645,-82.1044,1.64,26.39,2 
SCCF RECON,ioos:station:SCCF:56:1,2014-10-08T05:00:00Z,26.4645,-82.1044,1.64,26.28,2 
SCCF RECON,ioos:station:SCCF:56:1,2014-10-08T06:00:00Z,26.4645,-82.1044,1.64,26.3,2 
SCCF RECON,ioos:station:SCCF:56:1,2014-10-08T07:00:00Z,26.4645,-82.1044,1.64,26.17,2 
SCCF RECON,ioos:station:SCCF:56:1,2014-10-08T08:00:00Z,26.4645,-82.1044,1.64,26.04,2 
SCCF RECON,ioos:station:SCCF:56:1,2014-10-08T09:00:00Z,26.4645,-82.1044,1.64,25.91,2 
SCCF RECON,ioos:station:SCCF:56:1,2014-10-08T10:00:00Z,26.4645,-82.1044,1.64,25.79,2 
SCCF RECON,ioos:station:SCCF:56:1,2014-10-08T11:00:00Z,26.4645,-82.1044,1.64,25.65,2 
SCCF RECON,ioos:station:SCCF:56:1,2014-10-08T12:00:00Z,26.4645,-82.1044,1.64,25.57,2 
SCCF RECON,ioos:station:SCCF:56:1,2014-10-08T13:00:00Z,26.4645,-82.1044,1.64,25.99,2 
SCCF RECON,ioos:station:SCCF:56:1,2014-10-08T14:00:00Z,26.4645,-82.1044,1.64,26.38,2 
SCCF RECON,ioos:station:SCCF:56:1,2014-10-08T17:00:00Z,26.4645,-82.1044,1.64,27.15,2 
SCCF RECON,ioos:station:SCCF:56:1,2014-10-08T18:00:00Z,26.4645,-82.1044,1.64,27.43,2 
SCCF RECON,ioos:station:SCCF:56:1,2014-10-08T19:00:00Z,26.4645,-82.1044,1.64,27.52,2 
SCCF RECON,ioos:station:SCCF:56:1,2014-10-08T20:00:00Z,26.4645,-82.1044,1.64,28.08,2 
SCCF RECON,ioos:station:SCCF:56:1,2014-10-08T21:00:00Z,26.4645,-82.1044,1.64,28.08,2 
SCCF RECON,ioos:station:SCCF:56:1,2014-10-08T22:00:00Z,26.4645,-82.1044,1.64,28.18,2 
SCCF RECON,ioos:station:SCCF:56:1,2014-10-08T23:00:00Z,26.4645,-82.1044,1.64,28.35,2 
SCCF RECON,ioos:station:SCCF:56:1,2014-10-09T00:00:00Z,26.4645,-82.1044,1.64,28.41,2 
SCCF RECON,ioos:station:SCCF:56:1,2014-10-09T01:00:00Z,26.4645,-82.1044,1.64,28.38,2 
SCCF RECON,ioos:station:SCCF:56:1,2014-10-09T02:00:00Z,26.4645,-82.1044,1.64,27.82,2 
SCCF RECON,ioos:station:SCCF:56:1,2014-10-09T03:00:00Z,26.4645,-82.1044,1.64,27.71,2 
SCCF RECON,ioos:station:SCCF:56:1,2014-10-09T04:00:00Z,26.4645,-82.1044,1.64,27.56,2 
SCCF RECON,ioos:station:SCCF:56:1,2014-10-09T05:00:00Z,26.4645,-82.1044,1.64,27.35,2 
SCCF RECON,ioos:station:SCCF:56:1,2014-10-09T06:00:00Z,26.4645,-82.1044,1.64,27.23,2 
SCCF RECON,ioos:station:SCCF:56:1,2014-10-09T07:00:00Z,26.4645,-82.1044,1.64,27.25,2 
SCCF RECON,ioos:station:SCCF:56:1,2014-10-09T08:00:00Z,26.4645,-82.1044,1.64,27.24,2 
SCCF RECON,ioos:station:SCCF:56:1,2014-10-09T09:00:00Z,26.4645,-82.1044,1.64,27.18,2 
SCCF RECON,ioos:station:SCCF:56:1,2014-10-09T10:00:00Z,26.4645,-82.1044,1.64,27.07,2 
SCCF RECON,ioos:station:SCCF:56:1,2014-10-09T11:00:00Z,26.4645,-82.1044,1.64,26.95,2 
SCCF RECON,ioos:station:SCCF:56:1,2014-10-09T12:00:00Z,26.4645,-82.1044,1.64,26.83,2 
SCCF RECON,ioos:station:SCCF:56:1,2014-10-09T13:00:00Z,26.4645,-82.1044,1.64,26.73,2 
SCCF RECON,ioos:station:SCCF:56:1,2014-10-09T14:00:00Z,26.4645,-82.1044,1.64,26.79,2 
SCCF RECON,ioos:station:SCCF:56:1,2014-10-09T15:00:00Z,26.4645,-82.1044,1.64,27.39,2 
SCCF RECON,ioos:station:SCCF:56:1,2014-10-09T16:00:00Z,26.4645,-82.1044,1.64,27.63,2 
SCCF RECON,ioos:station:SCCF:56:1,2014-10-09T17:00:00Z,26.4645,-82.1044,1.64,27.82,2 
SCCF RECON,ioos:station:SCCF:56:1,2014-10-09T18:00:00Z,26.4645,-82.1044,1.64,28.04,2 
SCCF RECON,ioos:station:SCCF:56:1,2014-10-09T19:00:00Z,26.4645,-82.1044,1.64,28.19,2 
SCCF RECON,ioos:station:SCCF:56:1,2014-10-09T20:00:00Z,26.4645,-82.1044,1.64,28.25,2 
SCCF RECON,ioos:station:SCCF:56:1,2014-10-09T21:00:00Z,26.4645,-82.1044,1.64,28.59,2 
SCCF RECON,ioos:station:SCCF:56:1,2014-10-09T22:00:00Z,26.4645,-82.1044,1.64,28.66,2 
SCCF RECON,ioos:station:SCCF:56:1,2014-10-09T23:00:00Z,26.4645,-82.1044,1.64,28.66,2 
SCCF RECON,ioos:station:SCCF:56:1,2014-10-10T00:00:00Z,26.4645,-82.1044,1.64,28.58,2 
SCCF RECON,ioos:station:SCCF:56:1,2014-10-10T01:00:00Z,26.4645,-82.1044,1.64,28.53,2 
SCCF RECON,ioos:station:SCCF:56:1,2014-10-10T02:00:00Z,26.4645,-82.1044,1.64,28.18,2 
SCCF RECON,ioos:station:SCCF:56:1,2014-10-10T03:00:00Z,26.4645,-82.1044,1.64,27.53,2 
SCCF RECON,ioos:station:SCCF:56:1,2014-10-10T04:00:00Z,26.4645,-82.1044,1.64,27.24,2 
SCCF RECON,ioos:station:SCCF:56:1,2014-10-10T05:00:00Z,26.4645,-82.1044,1.64,27.14,2 
SCCF RECON,ioos:station:SCCF:56:1,2014-10-10T06:00:00Z,26.4645,-82.1044,1.64,27.17,2 
SCCF RECON,ioos:station:SCCF:56:1,2014-10-10T07:00:00Z,26.4645,-82.1044,1.64,27.12,2 
SCCF RECON,ioos:station:SCCF:56:1,2014-10-10T08:00:00Z,26.4645,-82.1044,1.64,27.08,2 
SCCF RECON,ioos:station:SCCF:56:1,2014-10-10T09:00:00Z,26.4645,-82.1044,1.64,27.03,2 
SCCF RECON,ioos:station:SCCF:56:1,2014-10-10T10:00:00Z,26.4645,-82.1044,1.64,26.94,2 
SCCF RECON,ioos:station:SCCF:56:1,2014-10-10T11:00:00Z,26.4645,-82.1044,1.64,26.8,2 
SCCF RECON,ioos:station:SCCF:56:1,2014-10-10T12:00:00Z,26.4645,-82.1044,1.64,26.65,2 
SCCF RECON,ioos:station:SCCF:56:1,2014-10-10T13:00:00Z,26.4645,-82.1044,1.64,26.55,2 
SCCF RECON,ioos:station:SCCF:56:1,2014-10-10T14:00:00Z,26.4645,-82.1044,1.64,26.52,2 
SCCF RECON,ioos:station:SCCF:56:1,2014-10-10T15:00:00Z,26.4645,-82.1044,1.64,26.91,2 
SCCF RECON,ioos:station:SCCF:56:1,2014-10-10T16:00:00Z,26.4645,-82.1044,1.64,27.64,2 
SCCF RECON,ioos:station:SCCF:56:1,2014-10-10T17:00:00Z,26.4645,-82.1044,1.64,27.95,2 
SCCF RECON,ioos:station:SCCF:56:1,2014-10-10T18:00:00Z,26.4645,-82.1044,1.64,28.1,2 
SCCF RECON,ioos:station:SCCF:56:1,2014-10-10T19:00:00Z,26.4645,-82.1044,1.64,28.28,2 
SCCF RECON,ioos:station:SCCF:56:1,2014-10-10T20:00:00Z,26.4645,-82.1044,1.64,28.51,2 
SCCF RECON,ioos:station:SCCF:56:1,2014-10-10T21:00:00Z,26.4645,-82.1044,1.64,28.56,2 
SCCF RECON,ioos:station:SCCF:56:1,2014-10-10T22:00:00Z,26.4645,-82.1044,1.64,28.53,2 
SCCF RECON,ioos:station:SCCF:56:1,2014-10-10T23:00:00Z,26.4645,-82.1044,1.64,28.57,2 
SCCF RECON,ioos:station:SCCF:56:1,2014-10-11T00:00:00Z,26.4645,-82.1044,1.64,28.5,2 
SCCF RECON,ioos:station:SCCF:56:1,2014-10-11T01:00:00Z,26.4645,-82.1044,1.64,28.38,2 
SCCF RECON,ioos:station:SCCF:56:1,2014-10-11T02:00:00Z,26.4645,-82.1044,1.64,28.33,2 
SCCF RECON,ioos:station:SCCF:56:1,2014-10-11T03:00:00Z,26.4645,-82.1044,1.64,27.75,2 
SCCF RECON,ioos:station:SCCF:56:1,2014-10-11T04:00:00Z,26.4645,-82.1044,1.64,27.41,2 
SCCF RECON,ioos:station:SCCF:56:1,2014-10-11T05:00:00Z,26.4645,-82.1044,1.64,27.44,2 
SCCF RECON,ioos:station:SCCF:56:1,2014-10-11T06:00:00Z,26.4645,-82.1044,1.64,27.3,2 
SCCF RECON,ioos:station:SCCF:56:1,2014-10-11T07:00:00Z,26.4645,-82.1044,1.64,27.28,2 
SCCF RECON,ioos:station:SCCF:56:1,2014-10-11T08:00:00Z,26.4645,-82.1044,1.64,27.32,2 
SCCF RECON,ioos:station:SCCF:56:1,2014-10-11T09:00:00Z,26.4645,-82.1044,1.64,27.1,2 
SCCF RECON,ioos:station:SCCF:56:1,2014-10-11T10:00:00Z,26.4645,-82.1044,1.64,27.08,2 
SCCF RECON,ioos:station:SCCF:56:1,2014-10-11T11:00:00Z,26.4645,-82.1044,1.64,27.02,2 
SCCF RECON,ioos:station:SCCF:56:1,2014-10-11T12:00:00Z,26.4645,-82.1044,1.64,26.92,2 
SCCF RECON,ioos:station:SCCF:56:1,2014-10-11T13:00:00Z,26.4645,-82.1044,1.64,26.77,2 
SCCF RECON,ioos:station:SCCF:56:1,2014-10-11T14:00:00Z,26.4645,-82.1044,1.64,26.84,2 
SCCF RECON,ioos:station:SCCF:56:1,2014-10-11T15:00:00Z,26.4645,-82.1044,1.64,27.1,2 
SCCF RECON,ioos:station:SCCF:56:1,2014-10-11T16:00:00Z,26.4645,-82.1044,1.64,27.97,2 
SCCF RECON,ioos:station:SCCF:56:1,2014-10-11T17:00:00Z,26.4645,-82.1044,1.64,28.23,2 
SCCF RECON,ioos:station:SCCF:56:1,2014-10-11T18:00:00Z,26.4645,-82.1044,1.64,28.37,2 
SCCF RECON,ioos:station:SCCF:56:1,2014-10-11T19:00:00Z,26.4645,-82.1044,1.64,28.63,2 
SCCF RECON,ioos:station:SCCF:56:1,2014-10-11T20:00:00Z,26.4645,-82.1044,1.64,28.89,2 
SCCF RECON,ioos:station:SCCF:56:1,2014-10-11T21:00:00Z,26.4645,-82.1044,1.64,28.68,2 
SCCF RECON,ioos:station:SCCF:56:1,2014-10-11T22:00:00Z,26.4645,-82.1044,1.64,28.89,2 
SCCF RECON,ioos:station:SCCF:56:1,2014-10-11T23:00:00Z,26.4645,-82.1044,1.64,28.92,2 
SCCF RECON,ioos:station:SCCF:56:1,2014-10-12T00:00:00Z,26.4645,-82.1044,1.64,28.89,2 
SCCF RECON,ioos:station:SCCF:56:1,2014-10-12T01:00:00Z,26.4645,-82.1044,1.64,28.83,2 
SCCF RECON,ioos:station:SCCF:56:1,2014-10-12T02:00:00Z,26.4645,-82.1044,1.64,28.77,2 
SCCF RECON,ioos:station:SCCF:56:1,2014-10-12T03:00:00Z,26.4645,-82.1044,1.64,28.58,2 
SCCF RECON,ioos:station:SCCF:56:1,2014-10-12T04:00:00Z,26.4645,-82.1044,1.64,28.06,2 
SCCF RECON,ioos:station:SCCF:56:1,2014-10-12T05:00:00Z,26.4645,-82.1044,1.64,27.91,2 
SCCF RECON,ioos:station:SCCF:56:1,2014-10-12T06:00:00Z,26.4645,-82.1044,1.64,27.83,2 
SCCF RECON,ioos:station:SCCF:56:1,2014-10-12T07:00:00Z,26.4645,-82.1044,1.64,27.73,2 
SCCF RECON,ioos:station:SCCF:56:1,2014-10-12T08:00:00Z,26.4645,-82.1044,1.64,27.63,2 
SCCF RECON,ioos:station:SCCF:56:1,2014-10-12T09:00:00Z,26.4645,-82.1044,1.64,27.49,2 
SCCF RECON,ioos:station:SCCF:56:1,2014-10-12T10:00:00Z,26.4645,-82.1044,1.64,27.43,2 
SCCF RECON,ioos:station:SCCF:56:1,2014-10-12T11:00:00Z,26.4645,-82.1044,1.64,27.4,2 
SCCF RECON,ioos:station:SCCF:56:1,2014-10-12T12:00:00Z,26.4645,-82.1044,1.64,27.32,2 
SCCF RECON,ioos:station:SCCF:56:1,2014-10-12T13:00:00Z,26.4645,-82.1044,1.64,27.27,2 
SCCF RECON,ioos:station:SCCF:56:1,2014-10-12T14:00:00Z,26.4645,-82.1044,1.64,27.29,2 
SCCF RECON,ioos:station:SCCF:56:1,2014-10-12T15:00:00Z,26.4645,-82.1044,1.64,27.57,2 